This is the latest recevied weather packets stored in our database for station/object KGRR-WX. If no packets are shown the sender has not sent any weather packets the latest 10 day(s).
| Time | Temp. | Humidity | Pressure | Rain* | Wind** | Luminosity | Snow |
|---|---|---|---|---|---|---|---|
| 1777438820 | 8.89° C | 86% | 984.7 hPa | 0 mm | - | - | - |
| 1777437905 | 8.89° C | 82% | 986.1 hPa | 0 mm | - | - | - |
| 1777437021 | 8.89° C | 85% | 984.2 hPa | 0 mm | - | - | - |
| 1777436104 | 8.89° C | 85% | 984.1 hPa | 0 mm | - | - | - |
| 1777435226 | 8.89° C | 85% | 984.1 hPa | 0 mm | - | - | - |
| 1777434304 | 8.89° C | 77% | 985.3 hPa | 0 mm | - | - | - |
| 1777433421 | 9.44° C | 77% | 985 hPa | 0 mm | - | - | - |
| 1777432504 | 10° C | 77% | 985 hPa | 0 mm | - | - | - |
| 1777431624 | 10° C | 77% | 985 hPa | 0 mm | - | - | - |
| 1777430704 | 10° C | 71% | 983.3 hPa | 0 mm | - | - | - |
| 1777429813 | 10° C | 78% | 984.5 hPa | 0 mm | - | - | - |
| 1777428904 | 11.11° C | 78% | 984.5 hPa | 0 mm | - | - | - |
| 1777428023 | 11.11° C | 78% | 984.5 hPa | 0 mm | - | - | - |
| 1777427104 | 11.11° C | 76% | 984 hPa | 0 mm | - | - | - |
| 1777426213 | 11.11° C | 76% | 984 hPa | 0 mm | - | - | - |
| 1777425305 | 11.11° C | 76% | 984 hPa | 0 mm | - | - | - |
| 1777424422 | 11.67° C | 76% | 984 hPa | 0 mm | - | - | - |
| 1777423505 | 11.67° C | 67% | 983.8 hPa | 0 mm | - | - | - |
| 1777422611 | 11.67° C | 66% | 984.3 hPa | 0 mm | - | - | - |
| 1777421705 | 11.67° C | 66% | 984.3 hPa | 0 mm | - | - | - |
| 1777420818 | 12.22° C | 66% | 984.3 hPa | 0 mm | - | - | - |
| 1777419904 | 12.78° C | 61% | 984.5 hPa | 0 mm | - | - | - |
| 1777419014 | 12.78° C | 62% | 984.6 hPa | 0 mm | - | - | - |
| 1777418104 | 13.33° C | 62% | 984.6 hPa | 0 mm | - | - | - |
| 1777417223 | 13.33° C | 62% | 984.6 hPa | 0 mm | - | - | - |
* Rain latest hour (hover to see other rain measurements)
** Current wind speed in m/s (hover to see current wind gust speed)